Location: Boussy-Saint-Antoine
(48.6830°N, 2.5330°E)
Time: 21:02:13
(UTC+02:00)

KKS-1 - Pass Details

Date: 28 July 2019
Orbit: 637 x 650 km, 98.3° (Epoch: 16 August)

Event Time Altitude Azimuth Distance (km) Brightness Sun altitude
Rises 22:12:24 0° 5° (N) 2,952 ? -6.1°
Reaches altitude 10° 22:14:50 10° 354° (N) 2,039 ? -6.4°
Maximum altitude 22:18:36 28° 296° (WNW) 1,214 ? -6.9°
Drops below altitude 10° 22:22:20 10° 238° (WSW) 2,031 ? -7.4°
Sets 22:24:46 0° 227° (SW) 2,938 ? -7.7°
